SWA2974 KLGB-KSMF

Flight info

Callsign SWA2974
Flight time N/A
Altitude 38000
Route TOPMM5 CSTRO NURAY SUUTR4
Aircraft B737/M-SDE2E3FGHIRWXY/LB1

Departure

Time 2026-05-09 07:43
Airport Long Beach International Airport (KLGB)

Arrival

Time N/A
Airport Sacramento International Airport (KSMF)
Time Latitude Longitude Altitude Speed Heading
2026-05-09 07:15 33.81820 -118.14600 42 ft 0 kts 91°
2026-05-09 07:35 33.81820 -118.14610 42 ft 3 kts 90°
2026-05-09 07:35 33.81820 -118.14634 42 ft 3 kts 89°
2026-05-09 07:35 33.81820 -118.14658 42 ft 3 kts 91°
2026-05-09 07:36 33.81820 -118.14674 42 ft 3 kts 99°
2026-05-09 07:36 33.81825 -118.14695 40 ft 3 kts 139°
2026-05-09 07:36 33.81832 -118.14700 42 ft 0 kts 179°
2026-05-09 07:39 33.81828 -118.14700 42 ft 2 kts 180°
2026-05-09 07:39 33.81795 -118.14700 42 ft 7 kts 180°
2026-05-09 07:39 33.81735 -118.14701 41 ft 10 kts 180°
2026-05-09 07:39 33.81652 -118.14704 42 ft 13 kts 186°
2026-05-09 07:40 33.81560 -118.14684 43 ft 14 kts 142°
2026-05-09 07:40 33.81482 -118.14590 41 ft 17 kts 135°
2026-05-09 07:40 33.81397 -118.14487 39 ft 17 kts 135°
2026-05-09 07:40 33.81315 -118.14388 40 ft 17 kts 135°
2026-05-09 07:41 33.81228 -118.14283 41 ft 19 kts 135°
2026-05-09 07:41 33.81123 -118.14156 42 ft 23 kts 135°
2026-05-09 07:41 33.81002 -118.14009 43 ft 25 kts 134°
2026-05-09 07:41 33.80884 -118.13866 41 ft 23 kts 134°
2026-05-09 07:42 33.80806 -118.13773 40 ft 9 kts 137°
2026-05-09 07:42 33.80758 -118.13758 43 ft 7 kts 202°
2026-05-09 07:42 33.80724 -118.13799 42 ft 7 kts 230°
2026-05-09 07:42 33.80721 -118.13853 42 ft 9 kts 311°
2026-05-09 07:43 33.80882 -118.14050 43 ft 68 kts 314°
2026-05-09 07:43 33.81375 -118.14647 40 ft 130 kts 314°
2026-05-09 07:43 33.82109 -118.15527 252 ft 157 kts 315°
2026-05-09 07:43 33.82855 -118.16470 910 ft 156 kts 313°
2026-05-09 07:44 33.83640 -118.17463 1450 ft 166 kts 313°
2026-05-09 07:44 33.84384 -118.18499 2029 ft 173 kts 313°
2026-05-09 07:44 33.85258 -118.19765 2158 ft 212 kts 304°
2026-05-09 07:44 33.85833 -118.21430 2567 ft 232 kts 279°
2026-05-09 07:45 33.86047 -118.23479 2934 ft 258 kts 277°
2026-05-09 07:45 33.86305 -118.25638 3819 ft 262 kts 281°
2026-05-09 07:45 33.86701 -118.27823 4658 ft 268 kts 283°
2026-05-09 07:45 33.87106 -118.29990 5609 ft 271 kts 283°
2026-05-09 07:46 33.87556 -118.32210 6465 ft 277 kts 284°
2026-05-09 07:46 33.88051 -118.34420 7445 ft 277 kts 284°
2026-05-09 07:46 33.88421 -118.36272 8288 ft 279 kts 283°
2026-05-09 07:46 33.88867 -118.38580 9179 ft 289 kts 283°
2026-05-09 07:47 33.89333 -118.40972 10126 ft 295 kts 283°
2026-05-09 07:47 33.89908 -118.43368 10910 ft 308 kts 297°
2026-05-09 07:47 33.91393 -118.45382 11085 ft 340 kts 322°
2026-05-09 07:47 33.93449 -118.46890 11775 ft 350 kts 332°
2026-05-09 07:48 33.95618 -118.48248 12728 ft 353 kts 332°
2026-05-09 07:48 33.97794 -118.49621 13610 ft 356 kts 332°
2026-05-09 07:48 34.00026 -118.50989 14388 ft 363 kts 336°
2026-05-09 07:48 34.02391 -118.52120 15259 ft 368 kts 339°
2026-05-09 07:49 34.04794 -118.53195 16179 ft 371 kts 339°
2026-05-09 07:49 34.07214 -118.54326 17064 ft 374 kts 338°
2026-05-09 07:49 34.09645 -118.55484 17884 ft 378 kts 338°
2026-05-09 07:49 34.12144 -118.56533 18648 ft 383 kts 342°
2026-05-09 07:50 34.14740 -118.57470 19400 ft 388 kts 343°
2026-05-09 07:50 34.17298 -118.58359 20102 ft 392 kts 343°
2026-05-09 07:50 34.19977 -118.59275 20850 ft 396 kts 343°
2026-05-09 07:50 34.22599 -118.60194 21518 ft 401 kts 342°
2026-05-09 07:51 34.25283 -118.61143 22170 ft 405 kts 342°
2026-05-09 07:51 34.27991 -118.62113 22764 ft 409 kts 342°
2026-05-09 07:51 34.30737 -118.63100 23353 ft 414 kts 342°
2026-05-09 07:51 34.32602 -118.63776 23827 ft 413 kts 342°
2026-05-09 07:52 34.35026 -118.64654 24346 ft 418 kts 342°
2026-05-09 07:52 34.37820 -118.65665 24955 ft 420 kts 342°
2026-05-09 07:52 34.40625 -118.66686 25595 ft 422 kts 342°
2026-05-09 07:52 34.43446 -118.67665 26264 ft 423 kts 346°
2026-05-09 07:53 34.46339 -118.68361 26882 ft 425 kts 351°
2026-05-09 07:53 34.49261 -118.68868 27361 ft 427 kts 351°
2026-05-09 07:53 34.52215 -118.69362 27877 ft 428 kts 351°
2026-05-09 07:53 34.55172 -118.69889 28384 ft 430 kts 351°
2026-05-09 07:54 34.58132 -118.70444 28868 ft 431 kts 351°
2026-05-09 07:54 34.61097 -118.71008 29332 ft 432 kts 351°
2026-05-09 07:54 34.64079 -118.71571 29789 ft 434 kts 350°
2026-05-09 07:54 34.67054 -118.72167 30230 ft 436 kts 350°
2026-05-09 07:55 34.69227 -118.72602 30547 ft 438 kts 350°
2026-05-09 07:55 34.72199 -118.73387 31081 ft 436 kts 341°
2026-05-09 07:55 34.74917 -118.74984 31712 ft 432 kts 331°
2026-05-09 07:55 34.77509 -118.76796 32366 ft 428 kts 331°
2026-05-09 07:56 34.80101 -118.78574 32866 ft 427 kts 331°
2026-05-09 07:56 34.82670 -118.80374 33246 ft 427 kts 330°
2026-05-09 07:56 34.85240 -118.82180 33703 ft 425 kts 330°
2026-05-09 07:56 34.87795 -118.83974 34351 ft 420 kts 330°
2026-05-09 07:57 34.90324 -118.85736 34874 ft 417 kts 331°
2026-05-09 07:57 34.92860 -118.87486 35192 ft 420 kts 330°
2026-05-09 07:57 34.95408 -118.89242 35530 ft 422 kts 331°
2026-05-09 07:57 34.97128 -118.90425 35834 ft 419 kts 330°
2026-05-09 07:58 34.99382 -118.91978 36198 ft 416 kts 331°
2026-05-09 07:58 35.01893 -118.93721 36415 ft 418 kts 331°
2026-05-09 07:58 35.04439 -118.95464 36603 ft 420 kts 330°
2026-05-09 07:58 35.06986 -118.97203 36915 ft 419 kts 330°
2026-05-09 07:59 35.09527 -118.98950 37215 ft 419 kts 330°
2026-05-09 07:59 35.12067 -119.00696 37535 ft 418 kts 330°
2026-05-09 07:59 35.14588 -119.02455 37922 ft 417 kts 330°
2026-05-09 07:59 35.17121 -119.04209 38025 ft 421 kts 330°